Track NAVSTAR 34 (USA 94) now! NAVSTAR 34 (USA 94) is classified as:
1 22779U 93054A 25114.87408748 -.00000015 00000-0 00000+0 0 9993 2 22779 53.4278 232.9437 0051391 246.7445 166.0136 1.89129643228175